Location: *
(41.3833°S, 177.8333°W)
Time: 06:48:51
(UTC+00:00)

SL-8 R/B - Pass Details

Date: 01 April 2020
Orbit: 656 x 667 km, 48.4° (Epoch: 03 June)

Event Time Altitude Azimuth Distance (km) Brightness Sun altitude
Exits shadow 16:47:52 26° 266° (W) 1,306 4.6 -15.8°
Maximum altitude 16:50:22 54° 200° (SSW) 825 4.1 -15.3°
Drops below altitude 10° 16:55:10 10° 122° (ESE) 2,116 7.3 -14.5°
Sets 16:57:36 0° 117° (ESE) 3,033 8.5 -14.0°
